Location: Hains Lake
(37.8540°N, 99.8578°W)
Time: 16:35:08
(UTC+00:00)

Vanguard 1 - Pass Details

Date: 09 December 2021
Orbit: 652 x 3830 km, 34.2° (Epoch: 22 January)

Event Time Altitude Azimuth Distance (km) Brightness Sun altitude
Rises 01:46:54 0° 185° (S) 5,510 14.1 -28.2°
Reaches altitude 10° 01:51:27 10° 170° (S) 5,012 13.6 -29.1°
Enters shadow 02:01:04 22° 131° (SE) 4,972 13.2 -31.0°
